Showing default

FORMOSAT7-1/COSMIC2-1, 44349

Orbit data source: Space-Track

FORMOSAT7-1/COSMIC2-1, 44349 is a payload satellite owned by NSPO (TW) in LEO that was launched on Tue, 25 Jun 2019 UTC via an FALCON HEAVY launch vehicle from the Air Force Eastern Test Range (AFETR). Payload-class satellites include a variety of spacecraft equipped with specific instruments for various scientific and technological missions. These include communications satellites like Starlink; space stations such as the ISS; scientific satellites like the Hubble; Earth observation satellites from companies like Planet Labs, Umbra, and HawkEye 360; GPS; miniature CubeSats for education and research; and military/defense satellites.

Not visible in the next 10 days
Identifier
44349, 2019-036L
Orbit
LEO
Country
Flag of TWTW / TWN
Related business
Manufacturer
SSTL (Astrium)
Mission
Operational Civil Weather
Bus & Motor
SSTL-100, Unknown motor
Mass
278 kg wet, 278 kg dry
Launch date (UTC)
2019-06-25 (6 years ago)
Launch vehicle
FALCON HEAVY
Launch site
Air Force Eastern Test Range (AFETR)
Object type
Payload
Rocket body
Debris
Shape & HBR
Box + 1 Pan, 1.5 m
Radar Cross Section
2.189 m², Large (>1 m²)

Expand to show TLE details & history
Last TLE update: 1 day ago

TLE from 1 day ago
0 FORMOSAT7-1/COSMIC2-1
1 44349U 19036L   25290.15463014  .00006992  00000-0  55423-3 0  9993
2 44349  23.9975 232.1243 0000913  17.8511 342.2022 14.97859347348191
Epoch: 2025-10-17T03:42Z
TLE epoch observation values (Epoch: 2025-10-17T03:42:40.044Z)
Latitude
-0°
Longitude
150.55337°
Altitude
570.796 km
Speed
7.579 km/s
True Right ascension
15h 28m 29s
True Declination
0° 00' 00"
Sunlit
Object was in daylight at epoch
Visualization orbit readout
Latitude
Unknown
Longitude
Unknown
Altitude
Unknown
Speed
Unknown
Apparent Right ascension
Unknown
Apparent Declination
Unknown
Sunlit
N/A
Visualization observer readout
Local Sidereal Time
03:11:36
Azimuth
Unknown
Elevation
Unknown
Doppler factor
Unknown
Orbital elements
Apogee altitude
578.917 km
Perigee altitude
577.647 km
Semi-major axis
6,956.419 km
Eccentricity
0.00009
Inclination
23.9975°
RAAN
232.1243°
Arg. of periapsis
17.8511°
True anomaly
342.199°
Mean anomaly
342.2022°
Eccentric anomaly
342.2006°
Mean motion
3.7408 °/min
Orbital period
96.24 mins
BSTAR
0.00055423
Loading maneuver chart data...
Computing Atmospheric mass density...

Documentation

Showing up to 5 results
|